Simultaneous Nadir Overpasses (SNOs) Predictions

Prediction of SNOs between LANDSAT-8 and NOAA-19 Satellite Orbit:

Table of predicted SNOs for the next 14.0 days since TLE Epoch: 8/18/2018
Index Date (LANDSAT-8) Time (LANDSAT-8) Lat,Lon (LANDSAT-8) SZA (LANDSAT-8 ) Date (NOAA-19) Time (NOAA-19) Lat,Lon (NOAA-19) SZA (NOAA-19 ) Distance(km) Time Diff (sec)
1 08/18/2018 17:07:10 77.85, -61.94 65.22 08/18/2018 17:07:06 77.87, -61.96 65.23 2.17 4
2 08/18/2018 17:56:45 -77.50, 104.19 115.20 08/18/2018 17:57:50 -77.44, 107.55 115.04 81.37 65
3 08/20/2018 22:40:55 -77.88, 34.78 114.01 08/20/2018 22:40:34 -77.88, 34.69 114.02 2.07 21
4 08/20/2018 23:30:24 77.74,-158.20 65.84 08/20/2018 23:31:35 77.69,-157.04 65.87 28.09 71
5 08/23/2018 04:14:39 77.90, 131.42 66.77 08/23/2018 04:14:12 77.86, 131.44 66.73 3.92 27
6 08/23/2018 05:04:08 -77.82, -61.28 113.31 08/23/2018 05:05:07 -77.85, -61.19 113.27 3.22 59
7 08/25/2018 09:48:25 -77.89,-132.05 112.47 08/25/2018 09:47:41 -77.89,-132.02 112.48 0.93 44
8 08/25/2018 10:37:52 77.84, 35.34 67.48 08/25/2018 10:38:45 77.85, 35.47 67.51 3.30 53
9 08/27/2018 15:22:09 77.90, -35.45 68.33 08/27/2018 15:21:19 77.92, -35.47 68.33 1.93 50
10 08/27/2018 16:11:37 -77.87, 132.07 111.70 08/27/2018 16:12:14 -77.86, 132.09 111.70 1.03 37
11 08/29/2018 20:55:53 -77.94, 61.28 110.84 08/29/2018 20:54:47 -77.92, 61.24 110.87 2.33 66
12 08/29/2018 21:45:20 77.88,-131.35 69.11 08/29/2018 21:45:50 77.87,-131.26 69.12 2.21 30
13 09/01/2018 02:29:37 77.93, 157.84 69.98 09/01/2018 02:28:24 77.94, 157.76 69.97 2.07 73




NCC Satellite Simultaneous Nadir Overpasses (SNOs) Prediction Service
